Location: Newark
(39.6172°N, 96.8533°W)
Time: 21:36:55
(UTC+00:00)

Vanguard 1 - All Passes

Search period start: 25 February 2020 00:00
Search period end: 06 March 2020 00:00
Orbit: 650 x 3833 km, 34.2° (Epoch: 25 February)

Date Brightness Start Highest point End Pass type
(mag) Time Alt. Az. Time Alt. Az. Time Alt. Az.
25 Feb - 11:09:28 10° SSW 11:28:18 33° SE 11:45:17 10° E visible
25 Feb - 13:30:28 10° SW 13:53:16 60° SSE 14:09:20 10° E daylight
25 Feb - 15:57:00 10° W 16:18:20 73° S 16:30:28 10° E daylight
25 Feb - 18:25:19 10° W 18:41:09 54° SSW 18:49:44 10° SE daylight
25 Feb - 20:54:16 10° W 21:00:31 17° SW 21:05:09 10° SSW daylight
26 Feb - 09:17:01 10° SSE 09:25:53 14° SE 09:34:54 10° ESE visible
26 Feb - 11:28:58 10° SSW 11:49:15 41° SE 12:07:11 10° E visible
26 Feb - 13:51:27 10° WSW 14:14:35 66° SSE 14:30:27 10° E daylight
26 Feb - 16:18:41 10° W 16:39:36 72° S 16:51:21 10° ESE daylight
26 Feb - 18:47:05 10° W 19:01:51 46° SSW 19:10:07 10° SE daylight
26 Feb - 21:18:59 10° WSW 21:20:37 10° SW 21:22:07 10° SW daylight
27 Feb - 09:32:54 10° S 09:46:28 20° SE 10:00:22 10° E visible
27 Feb - 11:48:56 10° SW 12:10:18 48° SSE 12:28:47 10° E visible
27 Feb - 14:12:41 10° WSW 14:35:59 70° S 14:51:32 10° E daylight
27 Feb - 16:40:24 10° W 17:00:47 69° SSW 17:12:09 10° ESE daylight
27 Feb - 19:08:57 10° W 19:22:24 37° SW 19:30:16 10° SSE daylight
28 Feb - 09:50:52 10° S 10:07:04 27° SE 10:23:45 10° E visible
28 Feb - 12:09:17 10° SW 12:31:27 55° SSE 12:50:11 10° E visible
28 Feb - 14:34:05 10° WSW 14:57:24 73° S 15:12:34 10° E daylight
28 Feb - 17:02:08 10° W 17:21:53 64° SSW 17:32:52 10° ESE daylight
28 Feb - 19:31:01 10° W 19:42:44 29° SW 19:50:06 10° SSE daylight
29 Feb - 10:09:48 10° SSW 10:27:44 34° SE 10:46:14 10° E visible
29 Feb - 12:29:56 10° SW 12:52:42 62° SSE 13:11:28 10° E visible
29 Feb - 14:55:37 10° W 15:18:49 74° S 15:33:33 10° E daylight
29 Feb - 17:23:54 10° W 17:42:50 57° SSW 17:53:27 10° SE daylight
29 Feb - 19:53:31 10° W 20:02:56 21° SW 20:09:25 10° S daylight
01 Mar - 08:18:05 10° SSE 08:25:59 13° SE 08:34:25 10° ESE visible
01 Mar - 10:29:19 10° SSW 10:48:31 42° SE 11:08:14 10° E visible
01 Mar - 12:50:52 10° WSW 13:14:04 68° SSE 13:32:41 10° E daylight
01 Mar - 15:17:14 10° W 15:40:12 74° S 15:54:30 10° ESE daylight
01 Mar - 17:45:42 10° W 18:03:36 49° SSW 18:13:51 10° SE daylight
01 Mar - 20:17:00 10° W 20:23:00 14° SW 20:27:43 10° SSW daylight
02 Mar - 08:33:59 10° SSE 08:46:19 20° SE 09:00:09 10° E visible
02 Mar - 10:49:18 10° SW 11:09:27 49° SSE 11:29:55 10° E visible
02 Mar - 13:12:00 10° WSW 13:35:31 72° S 13:53:51 10° E daylight
02 Mar - 15:38:55 10° W 16:01:30 71° SSW 16:15:22 10° ESE daylight
02 Mar - 18:07:36 10° W 18:24:11 41° SW 18:34:02 10° SSE daylight
03 Mar - 08:52:01 10° S 09:06:42 27° SE 09:23:40 10° E visible
03 Mar - 11:09:38 10° SW 11:30:30 56° SSE 11:51:25 10° E visible
03 Mar - 13:33:19 10° WSW 13:57:00 75° S 14:14:59 10° E daylight
03 Mar - 16:00:37 10° W 16:22:42 66° SSW 16:36:08 10° ESE daylight
03 Mar - 18:29:41 10° W 18:44:35 33° SW 18:53:54 10° SSE daylight
04 Mar - 09:11:00 10° SSW 09:27:11 34° SE 09:46:17 10° E visible
04 Mar - 11:30:14 10° SW 11:51:43 63° SSE 12:12:49 10° E visible
04 Mar - 13:54:45 10° W 14:18:32 75° S 14:36:04 10° E daylight
04 Mar - 16:22:20 10° W 16:43:45 60° SSW 16:56:45 10° SE daylight
04 Mar - 18:52:09 10° W 19:04:49 25° SW 19:13:18 10° S daylight
05 Mar - 07:20:33 10° SE 07:26:17 12° ESE 07:32:35 10° ESE visible
05 Mar - 09:30:33 10° SSW 09:47:48 42° SE 10:08:22 10° E visible
05 Mar - 11:51:05 10° WSW 12:13:04 68° SSE 12:34:09 10° E visible
05 Mar - 14:16:16 10° W 14:40:02 75° S 14:57:06 10° ESE daylight
05 Mar - 16:44:07 10° W 17:04:37 52° SSW 17:17:11 10° SE daylight
05 Mar - 19:15:21 10° W 19:24:53 18° SW 19:31:58 10° SSW daylight
